Flag for U.S.A. Weather past 2 weeks in Prudhoe Bay, Alaska, U.S.A.

Now
-7 °F

Heavy snow. Ice fog.


Feels Like: -40 °F
Forecast: -17 / -5 °F
Wind: 46 mph from West

Location: Deadhorse Airport

Current Time: Mar 1, 2015 at 12:13:26 AM

Latest Report: Feb 28, 2015 at 10:53 PM


Visibility: 0 mi

Pressure: 30.26 "Hg

Humidity: 79%

Dew point: -12 °F

Location of Prudhoe BayLocation

Historic Weather in Prudhoe Bay — Graph

°F

Prudhoe Bay temperature yesterday

Maximum temperature yesterday: 27 °F (at 12:53 PM)
Minimum temperature yesterday: -7 °F (at 10:53 PM)
Average temperature yesterday: 13 °F

Past Weeks' High & Low Weather Summary

 TemperatureHumidityPressure
High30 °F (Feb 27, 7:00 AM)93% (Feb 27, 5:53 AM)30.65 "Hg (Feb 27, 5:53 AM)
Low-23 °F (Feb 14, 5:53 AM)65% (Feb 14, 6:53 AM)29.62 "Hg (Feb 28, 2:53 PM)
Average5 °F77%30.06 "Hg
* Reported Feb 13 10:53 PM — Feb 28 10:53 PM, Prudhoe Bay, Weather by CustomWeather, © 2015

Note: Actual official high and low records may vary slightly from our data, if they occured in-between our weather recording intervals... More about our weather records

Advertising

Prudhoe Bay weather history for previous 24 hours

 ConditionsComfort  
Time TempWeatherWind HumidityBarometerVisibility
10:53 PM
Sat, Feb 28
-7 °FHeavy snow. Ice fog.46 mph79%30.26 "Hg0 mi
9:53 PM-4 °FHeavy snow. Ice fog.46 mph79%30.14 "Hg0 mi
8:53 PM1 °FHeavy snow. Ice fog.52 mph79%29.97 "Hg0 mi
7:53 PM2 °FHeavy snow. Ice fog.48 mph83%29.87 "Hg0 mi
6:53 PM5 °FHeavy snow. Ice fog.37 mph83%29.73 "Hg0 mi
5:53 PM13 °FSnow. Ice fog.47 mph84%29.70 "Hg0 mi
5:01 PM27 °FLight snow. Ice fog.23 mph89%29.63 "Hg2 mi
3:53 PM26 °FSnow. Ice fog.17 mph84%29.62 "Hg1 mi
2:53 PM26 °FMostly cloudy.18 mph74%29.62 "Hg10 mi
1:53 PM26 °FOvercast.15 mph74%29.63 "Hg10 mi
12:53 PM27 °FMore clouds than sun.16 mph72%29.66 "Hg10 mi
11:53 AM23 °FBroken clouds.14 mph78%29.69 "Hg10 mi
10:53 AM21 °FBroken clouds.13 mph81%29.72 "Hg10 mi
9:53 AM22 °FMostly cloudy.16 mph82%29.76 "Hg10 mi
8:53 AM19 °FMostly cloudy.10 mph81%29.78 "Hg10 mi
7:53 AM12 °FOvercast.9 mph80%29.80 "Hg10 mi
6:53 AM8 °FPassing clouds.7 mph83%29.83 "Hg10 mi
5:53 AM9 °FOvercast.No wind88%29.85 "Hg10 mi
4:53 AM9 °FMostly cloudy.7 mph84%29.88 "Hg10 mi
3:53 AM9 °FPassing clouds.14 mph84%29.88 "Hg10 mi
2:53 AM9 °FPassing clouds.15 mph84%29.90 "Hg10 mi
1:53 AM8 °FPassing clouds.15 mph83%29.93 "Hg10 mi
12:53 AM8 °FLow clouds.13 mph83%29.97 "Hg7 mi
Weather by CustomWeather, © 2015

See weather overviewHow to use our weather pages